Theta_e
347 347 347 347 348 349 348 348 348 348 349 350 352 351 349 348 347 349 349 347 346 347 347 346 345 344 345 346 346 347 347 346 345 343 343 343 344 344 344 344 343 342 342 343 344 342 343 346 346 345 345 345 348 349 348 350 351 350 349 348 349 349 343 337 335 335 336 336 333 332 335 342 344 333
346 348 349 349 350 350 348 348 349 349 351 352 352 351 349 349 350 351 351 350 350 350 349 349 346 342 340 340 340 341 341 339 339 339 340 341 343 343 343 343 343 342 342 344 345 346 347 347 347 346 346 347 348 350 350 351 352 352 351 350 349 350 347 342 340 337 334 334 333 332 331 336 343 340
346 348 350 351 352 352 350 350 351 352 352 352 352 352 351 351 352 352 352 352 352 351 351 349 344 339 336 336 338 340 341 341 340 340 341 342 342 343 344 345 344 343 342 343 345 346 346 346 346 347 348 349 349 350 352 351 352 353 353 352 350 351 350 347 346 345 338 333 331 331 330 331 338 343
343 345 347 350 351 351 350 349 349 350 351 352 352 352 351 351 352 353 352 352 352 351 351 346 339 338 336 336 340 341 341 341 341 341 341 342 343 344 345 346 346 344 343 342 342 343 343 344 346 348 349 349 348 349 350 350 350 351 352 351 349 349 351 350 349 349 345 338 331 330 330 330 332 340
342 342 343 346 349 348 347 346 345 345 349 352 352 351 351 351 352 353 352 352 351 349 347 342 339 340 336 333 337 337 336 338 341 341 341 342 343 343 345 345 346 346 343 342 342 342 343 344 345 346 347 346 346 346 347 348 349 349 348 348 349 349 351 351 350 350 350 345 335 330 330 330 330 334
344 344 344 344 345 346 345 346 347 347 349 351 352 351 350 350 351 352 352 350 348 345 341 339 338 337 333 330 332 331 333 338 341 342 342 342 342 343 345 346 345 345 344 343 343 342 343 345 346 346 346 346 345 345 347 349 349 348 348 349 350 350 350 352 351 350 352 350 342 332 330 330 329 330
345 344 345 345 346 348 348 349 351 351 352 352 351 350 349 350 350 351 350 349 346 344 340 337 335 334 331 330 331 331 336 342 345 344 343 342 342 343 344 345 345 346 344 342 342 342 344 346 346 347 347 348 348 348 349 350 351 350 352 351 351 352 352 352 353 351 352 353 347 337 331 330 329 329
348 347 348 349 349 349 348 347 346 347 349 350 350 349 349 350 350 350 349 347 346 345 342 338 336 335 333 331 332 336 340 343 343 343 342 341 342 343 344 345 345 344 343 342 342 344 346 346 348 350 352 352 352 352 351 352 353 353 353 353 352 352 353 354 354 353 352 353 351 340 332 331 329 329
352 349 347 346 345 345 344 343 343 342 343 344 347 348 349 349 349 348 347 345 345 346 343 340 339 336 334 332 334 339 343 343 342 341 342 341 341 342 342 343 343 342 343 343 344 346 347 348 350 352 354 354 354 354 353 353 354 353 352 353 352 353 355 355 355 354 353 353 351 343 334 330 330 329
351 349 346 345 346 346 345 345 345 344 343 342 343 343 344 345 344 344 342 342 343 344 344 345 343 336 334 335 336 340 344 345 345 343 341 340 340 340 341 341 343 344 345 346 347 347 348 350 352 353 354 355 355 354 354 353 353 353 352 353 353 354 355 355 355 355 354 352 350 345 336 331 330 330
351 350 348 348 348 348 347 346 346 346 346 345 344 343 342 342 343 343 343 342 343 343 344 345 341 336 337 339 339 341 343 345 346 345 342 339 339 341 343 343 345 346 346 347 347 348 349 351 352 353 353 354 354 354 354 354 353 354 354 354 354 354 354 355 355 355 355 353 350 346 340 334 332 331
352 351 351 349 349 348 347 346 346 346 347 346 346 345 344 343 343 344 344 344 344 344 344 341 339 339 340 340 341 343 343 344 344 345 344 344 343 344 345 346 347 347 347 348 348 348 349 350 352 352 352 353 354 355 355 355 355 354 354 353 353 354 354 355 355 355 356 355 353 350 345 340 336 333
352 352 351 350 349 348 347 347 346 345 344 344 344 346 346 345 345 345 345 346 346 345 344 342 341 342 341 341 344 345 345 346 346 346 347 348 347 346 346 347 348 349 349 348 348 349 349 350 351 351 352 352 354 355 355 354 353 352 351 350 352 353 354 354 354 355 356 357 356 354 351 346 341 337
352 351 351 351 349 349 348 347 347 345 344 343 343 345 347 346 346 346 346 347 347 347 346 345 344 343 343 345 346 347 348 348 348 349 349 349 349 348 347 347 348 350 350 349 348 349 350 350 350 351 352 353 353 353 353 351 350 349 349 348 349 351 353 354 354 355 356 357 357 356 355 352 347 342
352 351 351 350 349 349 348 347 346 345 344 344 343 343 345 346 347 347 347 348 348 348 347 346 346 346 346 346 347 348 349 349 349 350 350 349 349 349 349 349 349 350 351 350 349 350 350 350 351 351 352 352 351 351 350 349 348 349 348 348 349 350 352 354 355 355 356 356 357 357 356 356 354 348
350 350 350 349 349 347 347 346 346 346 345 345 345 345 345 345 345 345 345 347 348 348 347 347 347 348 348 347 348 348 349 350 350 349 350 350 350 351 351 351 351 351 350 350 350 350 350 351 350 351 350 350 349 349 349 349 349 350 349 349 350 350 351 353 355 355 355 355 356 357 356 356 356 354
347 346 347 347 347 347 347 347 347 347 347 346 346 346 346 346 346 345 346 347 348 348 349 350 350 350 350 350 349 349 349 350 350 350 350 351 352 352 353 352 351 351 350 351 351 350 350 350 349 349 349 349 349 349 349 349 350 349 350 349 349 350 351 353 355 355 354 355 355 355 356 356 356 355
347 346 345 345 345 345 346 346 346 347 346 346 345 345 345 345 345 346 346 348 349 351 352 353 353 353 353 352 351 350 350 350 351 351 351 352 352 352 352 351 351 351 351 350 351 350 350 349 348 349 348 348 348 349 349 349 349 348 349 349 350 351 353 353 354 354 354 354 354 354 354 355 356 356
348 347 345 345 344 344 342 342 343 343 343 343 343 342 343 345 345 347 348 349 350 351 352 353 354 354 353 351 350 350 351 352 352 352 352 352 352 351 351 351 350 349 349 349 349 349 349 347 347 346 345 345 348 349 348 348 349 349 349 350 352 352 353 352 351 352 352 353 354 354 353 354 355 356
349 348 346 345 345 344 342 339 338 339 339 340 341 341 342 344 345 346 346 346 347 349 351 352 352 352 351 350 350 351 351 351 351 351 351 350 350 351 351 350 348 344 346 348 348 347 345 342 342 341 338 340 345 346 344 346 349 350 349 349 350 350 350 350 349 349 350 351 353 353 354 354 354 355
349 347 346 346 346 345 342 339 339 339 341 342 343 343 343 344 345 346 345 346 347 348 349 349 350 350 349 349 350 350 350 350 350 350 350 349 350 349 347 344 339 336 341 345 344 342 338 336 339 338 332 334 340 339 335 336 342 348 349 348 347 348 348 349 349 349 350 351 352 352 353 354 354 354
348 347 347 347 347 346 344 343 343 344 345 347 347 347 347 347 347 347 347 347 347 347 348 348 348 348 348 348 348 349 349 349 348 349 350 349 346 340 334 333 331 330 337 342 341 337 331 329 337 339 330 328 334 333 328 326 326 335 343 343 342 343 344 344 346 349 350 350 350 351 351 352 352 353
348 348 347 347 346 347 347 347 348 348 348 349 348 348 348 348 348 348 347 347 346 346 345 344 343 343 344 346 347 348 348 348 348 348 346 341 335 329 327 331 333 333 337 339 336 331 322 323 335 340 335 331 330 326 326 324 317 318 325 328 329 332 334 337 341 345 346 348 349 350 350 350 350 349
349 347 345 344 346 349 350 350 350 350 349 348 347 347 346 346 345 345 344 342 340 339 337 337 338 341 343 345 346 346 346 346 344 341 334 326 324 326 327 330 334 336 338 335 329 322 318 323 333 338 340 340 334 325 323 321 315 311 312 315 318 321 324 331 337 340 342 343 342 340 341 345 348 348
349 348 346 346 349 351 351 351 349 345 342 340 339 338 337 337 336 336 335 334 332 331 333 335 335 336 338 339 340 341 340 337 336 331 324 319 323 329 329 327 328 331 333 329 322 318 322 331 336 339 342 343 338 331 323 315 311 310 311 313 317 320 324 331 336 337 338 336 329 322 322 327 334 341
350 350 349 349 350 350 350 348 340 331 327 326 325 325 325 325 326 326 326 327 328 329 332 335 333 331 330 329 329 330 330 327 325 322 317 316 320 326 329 330 330 331 329 325 320 321 329 337 339 339 340 339 336 332 323 312 310 312 313 315 319 322 326 332 334 333 333 331 323 316 312 311 315 323
349 348 347 347 348 348 349 343 331 319 318 318 317 319 321 321 323 326 328 329 330 330 332 333 333 330 327 323 321 321 320 318 316 314 313 313 314 318 323 329 332 331 326 321 320 325 331 336 338 337 336 334 333 328 319 310 311 314 315 319 324 326 328 330 329 329 330 329 322 315 310 309 310 312
345 343 342 342 341 340 339 332 321 315 316 318 318 319 321 323 325 328 330 331 330 328 327 326 325 324 322 320 318 316 314 312 311 311 311 311 312 313 315 319 322 320 317 318 321 326 330 332 333 333 332 332 330 324 314 309 312 317 319 321 327 330 330 331 330 329 329 328 322 313 309 309 310 310
341 340 339 336 331 327 323 318 314 316 320 321 322 322 323 324 326 326 326 326 325 324 323 322 321 321 319 318 318 316 313 310 309 309 310 310 311 311 311 312 312 313 316 320 324 326 327 328 328 328 329 329 324 317 311 309 315 322 325 325 326 330 331 331 331 329 325 320 315 310 308 309 310 310
337 335 333 328 321 316 314 313 315 321 325 325 325 325 326 327 327 325 325 325 324 324 324 323 323 322 321 320 320 318 313 309 308 308 309 308 308 309 308 308 311 315 319 322 325 326 326 325 325 324 323 319 314 311 312 312 317 324 328 328 328 328 327 327 326 323 318 313 309 308 308 309 308 308
328 325 321 317 313 312 313 315 318 323 326 326 326 327 327 327 326 325 325 325 325 325 325 324 324 324 323 322 322 318 313 309 309 309 309 308 309 309 309 308 309 312 316 319 321 321 320 319 317 316 313 310 309 312 317 320 323 326 329 330 329 324 320 319 317 314 310 308 307 308 308 308 308 308
314 313 312 311 314 318 321 321 322 324 325 326 327 327 326 325 325 324 325 325 325 324 324 324 324 323 322 322 320 316 311 309 310 310 309 310 310 310 309 309 309 308 309 311 313 312 311 310 310 309 309 309 310 312 316 321 327 329 329 329 326 319 313 312 310 308 308 308 308 308 308 308 308 308
308 310 313 316 320 324 325 324 324 325 326 327 327 325 324 323 323 323 324 324 323 323 323 322 322 321 321 319 316 312 310 310 311 312 311 312 312 311 311 311 311 310 309 308 309 308 308 308 308 308 308 309 310 310 311 315 320 321 319 316 314 311 309 309 308 308 308 308 308 308 308 308 307 307
308 313 320 324 324 325 326 325 325 325 325 326 325 324 324 323 323 323 323 323 323 322 322 321 321 320 318 316 313 311 311 312 313 313 313 313 313 313 312 311 311 310 309 309 309 308 308 307 307 307 307 308 309 309 309 310 312 312 309 308 308 308 309 308 308 308 307 307 307 307 308 308 308 307
307 314 323 326 324 325 326 326 325 325 325 325 324 324 324 324 323 323 323 322 321 321 320 319 317 316 314 313 312 312 314 314 314 313 313 313 312 312 311 311 311 311 311 310 309 308 308 307 306 306 307 307 307 307 308 309 309 308 307 307 307 308 308 308 307 307 307 306 307 307 307 308 308 307
309 317 324 325 324 324 325 325 325 325 325 324 324 323 323 323 322 321 320 320 319 319 318 317 315 313 312 313 314 315 316 316 315 314 313 312 312 311 311 311 312 312 312 311 310 309 308 307 307 306 306 306 306 306 308 308 308 307 307 307 307 308 308 307 307 307 306 306 306 306 307 307 308 307
315 320 324 323 322 322 323 323 323 323 323 323 323 322 321 321 320 319 319 318 318 317 316 315 313 313 313 315 316 317 316 316 316 315 314 313 312 311 311 311 311 311 311 310 309 308 308 307 306 306 305 305 305 305 306 307 307 307 307 308 308 307 307 307 306 306 306 306 306 306 306 306 307 307
319 322 322 321 321 321 321 321 321 321 321 321 321 320 320 320 319 318 318 317 316 315 314 313 313 313 314 315 316 316 316 316 315 315 314 313 312 311 311 311 310 310 309 308 307 307 307 306 306 305 305 305 305 305 306 306 306 306 307 308 308 307 306 306 306 306 306 306 306 306 306 306 306 306
322 322 322 321 320 320 320 320 320 320 320 320 319 319 319 318 318 318 317 316 315 314 313 313 313 313 314 314 314 314 314 314 314 314 313 312 311 310 310 310 310 309 307 306 306 306 305 305 305 305 305 305 305 305 306 306 306 306 307 308 307 306 306 306 306 306 306 306 306 306 306 306 306 306
322 322 322 322 320 319 319 319 319 319 319 319 318 318 317 317 316 316 315 314 314 313 313 313 313 313 313 313 313 313 313 313 312 312 311 310 310 310 310 309 308 307 306 305 304 304 304 304 305 305 305 305 305 305 305 305 306 306 306 306 306 305 305 305 305 305 306 306 306 307 307 307 306 306
320 320 320 320 320 319 319 318 318 318 318 317 317 317 316 316 315 315 314 313 313 312 312 312 312 312 312 312 312 312 312 311 311 311 310 310 309 309 308 307 305 304 304 303 303 304 304 304 304 304 304 304 304 304 305 305 305 305 305 305 304 304 304 304 305 305 306 306 307 307 307 307 307 307
318 318 318 318 318 318 318 318 318 317 317 317 316 316 316 315 315 314 314 313 312 312 312 312 312 312 311 311 311 311 311 311 310 310 309 309 307 306 305 304 303 303 303 303 303 303 303 303 303 304 304 304 304 304 304 304 304 304 304 304 304 304 304 304 304 305 306 306 307 307 306 306 306 306
316 316 316 316 317 317 317 317 317 317 317 316 316 316 315 315 314 314 314 313 313 312 312 311 311 311 311 310 310 310 310 309 309 308 308 306 304 303 302 302 302 302 302 302 302 302 303 303 303 303 303 303 303 303 303 303 303 303 303 303 303 303 303 303 304 304 305 305 305 305 304 305 305 306
315 315 315 315 316 316 316 316 316 316 316 316 316 316 315 315 314 314 313 313 313 312 312 311 310 310 309 309 309 309 308 308 307 307 305 303 302 301 301 301 301 301 301 301 302 302 302 302 302 302 302 302 302 302 302 302 302 302 302 302 302 303 303 303 303 303 303 303 303 304 304 305 305 305
313 314 314 314 315 314 315 314 314 315 315 315 315 315 314 314 313 313 312 312 312 311 311 310 309 309 308 308 307 307 307 307 306 304 302 301 300 300 300 300 300 300 301 301 301 301 301 301 301 301 301 301 301 301 301 301 301 302 302 302 302 302 302 303 303 302 302 302 303 303 304 304 304 303
Wind_Speed
8 8 8 6 5 5 6 6 5 5 4 4 7 8 8 8 9 10 12 12 9 8 9 9 8 7 9 11 12 13 14 14 15 15 15 14 14 15 15 15 16 16 16 16 16 16 15 17 21 19 14 15 18 19 17 16 17 18 19 19 19 19 19 18 16 14 13 13 13 14 14 14 14 14
7 8 8 7 6 6 8 7 6 5 4 4 5 6 7 7 8 9 11 12 11 10 10 11 11 10 9 10 11 11 11 11 12 12 11 12 13 14 14 14 15 16 15 14 15 15 16 19 21 18 15 16 19 18 17 17 17 17 17 17 17 17 17 17 17 16 14 12 12 12 13 13 13 13
7 8 8 8 8 8 8 8 7 6 5 5 5 6 8 9 8 9 11 12 11 11 12 12 11 10 10 9 9 9 9 9 10 11 11 11 12 12 13 14 16 17 17 16 15 16 18 20 20 17 15 17 18 19 19 20 19 17 16 15 14 15 15 15 16 17 15 13 11 11 11 12 12 12
8 8 9 9 9 9 9 8 8 9 9 8 7 7 8 9 8 8 9 11 11 12 13 12 9 9 9 8 7 8 8 8 11 11 10 11 11 11 12 13 14 16 18 20 20 18 18 19 18 15 15 17 18 20 22 22 19 16 14 14 13 14 14 13 14 16 17 14 12 10 10 10 11 11
8 9 9 9 8 8 8 7 7 8 9 10 9 8 7 7 6 7 8 11 13 13 12 10 8 8 10 9 8 9 10 10 11 11 10 11 11 11 12 12 13 15 18 22 24 21 20 22 21 18 17 17 17 19 20 18 15 12 10 11 13 14 14 13 12 14 17 16 12 11 10 9 9 10
8 8 9 8 7 6 6 5 4 5 6 8 8 6 5 6 6 7 8 10 14 14 12 9 9 9 11 12 12 13 12 11 12 12 11 11 11 11 11 11 13 16 19 23 25 24 24 25 23 20 18 17 16 15 13 11 10 10 9 10 13 14 15 14 12 12 15 16 13 11 10 8 8 8
7 8 7 6 5 5 6 5 4 5 5 5 6 5 5 6 6 7 8 9 13 15 13 10 11 13 14 15 14 13 10 10 11 12 12 12 12 12 11 12 15 19 22 25 26 26 26 25 21 18 16 14 12 10 9 9 9 9 10 10 12 13 14 15 13 11 12 15 14 11 10 9 7 7
6 7 6 5 4 4 5 4 4 5 6 6 6 5 5 7 7 8 9 11 13 14 14 13 14 16 17 15 13 11 9 8 10 12 12 14 14 13 13 15 19 22 24 25 26 26 25 22 17 14 12 11 9 8 8 8 8 9 10 11 11 11 13 14 14 12 11 13 13 10 9 9 8 7
7 7 6 4 3 2 2 3 4 4 4 5 6 6 6 7 9 11 12 12 12 14 15 15 17 18 17 14 12 11 11 11 12 13 14 15 15 15 15 18 21 23 24 25 25 24 23 18 12 9 9 8 7 7 6 6 7 8 10 11 10 10 11 13 15 14 12 11 11 8 7 8 8 7
7 6 4 1 2 3 5 7 8 7 6 5 5 5 6 7 9 10 11 12 13 15 16 17 20 19 16 14 13 13 14 15 16 18 18 17 16 18 19 20 22 23 24 24 24 23 21 15 9 6 6 7 6 6 6 7 7 9 11 12 12 10 10 11 13 14 13 11 10 8 6 7 8 7
4 3 3 3 4 7 10 11 11 11 11 10 8 8 7 8 9 10 12 13 14 16 17 19 20 19 16 16 16 15 16 17 18 20 21 20 19 21 22 23 24 24 24 24 23 22 19 14 8 5 5 5 6 6 7 8 9 10 12 13 14 12 10 9 10 12 13 12 11 9 6 6 7 8
5 5 6 7 8 10 11 10 8 9 10 11 12 12 11 10 10 11 13 14 15 17 18 19 18 18 18 18 17 17 17 18 19 20 22 23 23 24 25 25 25 25 25 26 25 23 19 14 10 9 8 6 7 8 8 9 11 13 14 15 15 14 12 9 7 9 11 12 12 11 9 6 6 7
8 9 9 10 11 12 11 10 10 9 8 10 11 13 13 13 12 12 14 15 16 16 17 17 18 19 19 18 18 19 19 19 21 21 22 24 25 27 28 27 26 26 27 28 27 24 20 15 13 13 13 11 9 10 11 12 14 16 16 15 15 13 12 10 9 7 8 9 11 11 11 9 7 7
9 11 11 12 12 13 13 13 13 11 10 11 11 11 13 15 14 14 15 16 16 16 17 18 19 19 19 18 18 19 20 20 21 22 23 25 27 28 30 29 27 27 30 31 28 24 19 16 15 15 16 14 12 13 14 17 17 17 16 15 14 13 11 10 10 8 6 7 8 10 11 11 9 7
12 12 13 13 14 14 14 14 14 12 12 12 11 10 11 13 15 16 16 16 17 18 18 18 18 18 19 19 19 20 21 21 21 22 24 26 28 28 30 31 30 29 30 31 29 22 18 17 17 15 15 15 15 15 17 18 18 17 16 14 12 12 11 10 10 10 8 7 7 7 8 9 10 9
15 15 15 14 14 14 13 13 13 14 14 14 13 13 12 13 14 16 17 18 19 19 19 19 19 20 22 23 22 22 22 23 23 25 26 26 26 27 28 29 30 30 29 28 26 21 17 17 17 15 15 16 15 16 16 16 15 14 15 14 12 11 11 10 9 10 10 10 9 8 7 8 9 9
15 15 15 15 15 15 15 14 14 14 15 15 15 15 15 16 16 17 18 19 21 21 21 21 20 21 24 25 24 23 23 24 25 26 26 25 26 27 27 28 29 28 26 24 22 20 17 17 16 16 16 15 15 14 13 12 12 13 14 13 12 12 10 9 8 9 10 11 11 11 9 8 8 9
17 16 16 17 17 18 18 18 17 17 17 17 17 17 18 18 19 19 19 19 20 21 21 21 21 22 24 25 25 24 24 25 26 26 27 27 28 28 27 27 26 23 20 19 19 17 15 15 16 16 16 15 13 12 11 11 11 12 13 12 12 12 10 8 9 10 10 11 11 11 11 10 9 9
22 21 20 19 19 20 20 21 22 21 21 20 20 20 20 20 20 20 19 19 20 21 22 23 23 24 25 25 25 25 25 25 25 26 27 27 27 27 25 23 20 16 15 14 15 15 14 14 15 15 14 13 11 10 12 13 12 11 10 10 11 10 9 9 10 11 11 11 11 11 11 10 10 9
24 24 23 22 21 20 20 21 23 23 23 23 22 22 21 21 20 20 19 20 20 21 22 23 24 24 24 25 25 24 23 23 24 24 24 23 23 22 21 18 15 13 12 12 13 13 14 14 15 15 13 11 9 10 12 14 12 9 8 9 10 10 10 10 10 10 10 11 11 11 11 10 9 9
26 25 24 22 22 20 20 20 21 22 23 22 22 22 21 20 20 20 20 21 21 21 22 22 22 22 22 22 22 21 20 20 20 20 19 18 18 17 17 16 15 13 11 11 14 15 14 14 14 15 14 10 8 10 12 13 12 9 7 8 10 11 11 10 10 9 9 9 9 9 10 10 10 10
25 24 24 23 22 21 21 21 22 22 22 21 21 20 20 19 19 19 19 20 20 19 19 18 18 17 17 16 16 15 15 15 16 15 15 15 15 14 14 15 16 14 11 11 15 16 15 14 13 15 16 12 9 10 12 12 12 10 8 9 10 10 10 10 10 9 8 8 8 8 9 9 10 10
23 23 22 22 22 22 22 22 22 21 20 19 19 19 18 17 17 17 17 17 16 15 14 14 13 12 11 11 12 12 11 12 13 14 14 14 14 14 13 13 14 14 12 13 16 18 17 14 12 14 17 16 14 13 13 14 15 13 11 10 10 9 9 8 8 8 8 8 9 9 9 9 10 10
24 24 23 23 23 22 21 19 19 18 17 16 16 16 15 14 13 13 13 13 12 11 11 10 10 9 9 10 10 10 11 11 11 11 12 13 13 14 14 13 13 13 14 15 18 19 18 15 14 14 15 17 19 19 18 18 17 15 12 11 9 9 7 6 6 7 8 7 9 10 10 10 11 11
22 23 24 23 22 20 17 15 13 12 11 10 10 10 9 9 9 9 9 9 9 8 8 8 7 6 7 9 10 11 12 12 12 11 11 11 12 13 14 15 16 15 15 17 19 19 16 14 13 12 12 15 19 21 22 20 17 14 12 10 8 8 7 5 5 6 6 7 9 12 13 12 12 12
21 21 20 19 16 13 12 10 7 6 6 5 5 5 6 6 7 8 8 8 8 7 8 8 7 6 7 9 11 12 13 14 13 13 13 12 12 13 14 15 17 17 17 18 18 17 14 11 11 11 13 17 20 22 23 21 17 13 10 7 7 8 7 7 8 8 8 8 11 15 17 15 13 13
19 19 16 12 9 7 7 6 4 4 5 4 4 5 6 7 7 8 8 8 8 8 8 9 9 10 11 12 12 13 15 16 15 16 16 15 15 15 14 14 15 17 17 17 16 14 12 11 11 13 15 19 21 23 23 20 16 13 10 7 5 7 8 9 11 12 11 11 14 18 18 16 13 11
11 9 6 3 2 3 4 4 4 4 4 4 5 6 8 8 8 8 8 8 8 9 9 10 12 13 13 12 12 14 16 17 17 17 18 18 18 17 16 15 15 16 16 16 15 15 14 13 14 14 16 19 21 22 22 19 15 14 12 8 6 7 9 11 13 14 14 14 17 20 19 16 14 12
5 5 4 4 4 4 4 4 5 5 5 6 7 9 10 10 9 8 8 8 8 9 11 12 13 13 13 13 15 16 17 18 18 18 18 18 18 18 16 14 13 14 15 14 14 14 15 16 17 17 18 19 19 19 18 16 13 13 14 12 10 10 12 13 15 16 17 18 19 21 19 17 16 15
6 6 6 6 5 5 6 7 7 8 8 8 10 10 10 10 9 9 8 8 9 9 11 12 13 13 14 16 18 19 20 19 17 17 16 16 16 15 14 11 11 13 14 14 14 14 16 18 19 19 19 17 15 13 14 13 11 11 12 14 14 15 15 16 18 20 21 20 19 18 17 15 15 14
8 8 8 6 6 7 9 9 9 9 10 11 11 10 10 10 10 9 8 7 8 9 10 12 12 14 16 18 19 21 21 19 17 15 15 14 14 14 13 11 11 12 13 13 13 14 16 17 17 17 16 14 11 10 11 11 10 10 11 13 15 17 19 20 22 22 22 21 19 17 16 15 14 14
7 6 6 5 6 7 7 7 7 7 10 12 11 9 9 9 8 7 7 7 8 9 11 12 13 15 17 19 21 22 20 17 16 15 14 13 13 13 13 13 12 11 10 9 9 10 12 13 12 12 12 12 11 11 10 10 10 11 12 13 14 17 19 21 22 21 21 21 20 19 18 17 17 18
3 3 5 6 8 8 6 5 4 5 8 11 10 9 8 8 8 8 8 9 10 11 12 14 16 18 20 22 21 19 16 14 13 13 12 12 12 12 12 12 13 13 11 9 9 10 11 12 12 12 11 10 11 13 13 11 11 12 14 16 17 18 19 20 21 21 22 23 23 22 21 21 21 22
1 4 6 7 8 8 7 7 7 7 8 9 9 9 9 9 9 10 11 12 13 15 16 18 20 22 23 21 18 14 12 10 10 11 11 11 11 12 13 13 14 15 15 14 14 14 15 15 15 14 13 10 10 11 11 11 12 14 16 17 18 20 20 21 22 23 24 26 27 28 26 25 25 26
2 7 9 8 7 6 6 7 8 8 8 9 9 9 10 11 13 14 16 17 18 19 20 20 21 20 19 15 12 10 9 9 10 11 11 11 12 13 13 14 15 15 16 17 17 17 18 19 19 19 18 16 13 11 11 12 15 17 18 19 20 21 23 23 24 26 27 28 29 31 31 30 29 30
5 9 10 8 6 5 4 5 7 8 9 10 11 12 13 14 16 17 18 19 20 21 21 20 18 15 12 9 8 8 8 10 11 12 12 12 13 13 14 14 15 16 17 18 18 18 19 20 21 22 23 22 21 19 17 16 16 18 21 22 22 23 24 25 26 27 29 29 30 32 33 34 33 33
9 9 8 7 5 4 4 6 7 8 9 10 12 13 15 16 17 18 19 20 20 21 20 18 15 12 9 8 8 9 10 11 12 14 14 15 16 16 16 16 17 18 19 19 18 19 19 20 21 22 24 25 25 25 24 21 19 19 21 23 24 25 27 28 29 29 30 30 31 32 33 34 35 34
11 9 7 7 5 4 5 7 8 9 10 12 13 15 16 16 17 18 19 20 20 18 16 14 12 11 10 10 10 11 12 14 15 16 17 18 19 19 19 19 20 21 21 21 20 19 20 20 21 21 22 23 25 27 27 26 23 22 21 23 25 27 29 30 31 31 31 31 32 33 33 34 35 35
10 8 7 7 6 6 7 8 10 11 13 14 15 16 17 17 18 19 19 19 18 15 13 12 12 12 13 13 14 15 16 17 18 19 20 20 20 20 20 21 23 24 24 24 22 21 21 21 21 21 21 21 22 24 25 27 27 25 24 24 26 27 28 29 30 31 31 32 33 35 35 35 36 36
7 7 7 7 7 8 8 9 11 12 13 14 15 16 17 17 18 18 18 17 16 15 14 14 14 15 16 17 17 18 18 19 20 20 20 20 21 22 23 24 25 26 25 24 23 22 21 21 21 21 21 21 21 22 23 25 26 25 24 24 24 25 26 26 27 28 30 30 32 34 36 37 38 38
6 6 7 8 9 10 11 11 12 13 13 14 15 16 17 17 17 17 17 16 16 16 16 16 17 17 18 18 19 19 20 20 20 21 22 23 24 25 25 26 25 25 24 23 22 22 21 21 21 21 21 21 21 22 22 23 25 25 25 25 24 24 24 23 23 23 24 25 26 29 32 35 38 39
8 8 9 11 12 13 13 14 14 15 15 15 16 17 17 17 17 17 17 17 17 17 17 18 18 19 19 19 20 20 21 22 23 24 25 26 27 27 26 25 24 23 22 21 21 21 21 21 21 21 21 21 21 22 22 23 25 26 26 26 25 24 23 22 21 20 20 20 22 25 29 33 36 38
13 13 13 14 15 15 15 16 16 17 17 18 18 18 18 18 18 18 18 19 19 20 20 20 21 21 21 21 21 22 23 24 25 26 27 28 28 27 25 23 22 20 20 20 20 20 21 21 21 20 20 20 19 20 20 21 22 24 25 26 26 25 24 23 21 19 19 19 20 22 24 25 27 30
17 17 17 18 18 18 18 18 18 19 19 20 20 20 20 20 20 20 20 21 21 22 22 23 23 23 23 23 23 24 25 26 27 28 28 28 26 24 22 20 19 19 18 19 19 20 20 19 19 19 18 18 17 18 19 20 22 23 24 25 26 26 26 25 23 22 22 22 22 22 21 20 21 25
19 20 20 20 20 21 21 21 21 21 21 21 22 22 22 22 22 22 22 22 23 23 24 24 24 24 25 25 26 26 27 28 28 28 27 25 22 20 18 18 17 17 17 17 19 20 19 18 17 17 16 16 17 17 18 19 21 22 24 25 25 25 25 25 26 27 28 26 24 23 23 24 26 28
Wind_Direction
221 222 221 217 221 241 248 251 259 260 270 300 309 304 295 295 308 319 322 327 337 340 339 335 322 306 300 298 296 302 310 314 317 320 321 321 327 332 331 328 329 330 331 337 345 346 345 345 345 344 338 336 341 343 345 349 347 342 340 343 347 352 355 354 354 352 346 345 349 355 5 13 18 26
219 219 226 228 226 234 239 238 250 262 264 273 291 298 295 299 311 316 317 322 326 329 337 343 338 329 322 318 316 320 327 331 334 338 337 334 335 339 343 346 348 346 341 341 343 343 341 338 338 338 333 332 335 337 341 347 344 338 336 337 341 345 351 355 356 357 352 347 347 351 360 10 16 22
229 227 237 243 237 240 245 244 249 259 265 266 274 293 299 298 304 314 317 318 322 328 335 344 348 344 342 344 346 350 355 354 352 353 351 347 347 351 355 359 359 355 351 349 343 338 339 339 338 335 330 330 330 330 334 337 336 334 332 334 339 341 343 348 353 356 356 350 347 349 354 4 14 19
242 241 243 248 250 256 263 262 259 257 257 258 265 284 294 294 299 312 314 311 315 323 328 338 356 359 357 2 1 355 355 352 347 347 345 341 341 343 343 345 347 345 344 345 342 341 344 347 344 336 328 325 323 322 323 326 333 337 335 335 341 344 342 341 343 350 355 353 347 346 350 357 8 16
250 257 257 256 260 269 273 272 267 259 250 249 259 281 298 297 297 308 313 313 316 319 324 337 355 356 351 353 352 345 343 343 340 336 333 331 330 331 330 330 332 332 334 338 340 342 345 345 343 337 327 322 320 318 320 329 345 354 352 348 347 348 348 343 337 340 350 354 348 344 346 351 359 10
253 261 265 268 272 272 266 262 264 256 247 253 263 280 302 304 301 305 312 316 318 320 325 335 343 343 341 342 344 343 341 343 343 337 334 332 328 326 321 317 322 328 332 334 336 338 340 341 341 336 330 327 325 325 333 353 8 7 2 355 346 344 348 350 342 336 344 350 349 342 341 345 352 360
258 256 262 271 269 250 240 242 257 268 270 271 267 263 281 297 302 301 303 310 314 316 320 328 333 336 337 337 340 341 341 346 347 342 338 335 330 323 315 314 322 327 330 332 333 334 336 338 340 340 338 338 338 345 2 14 11 357 346 341 337 339 346 353 352 342 340 346 347 341 336 339 344 350
257 246 248 251 241 237 246 262 290 298 291 269 250 256 278 289 291 292 294 301 308 309 310 317 326 330 330 330 336 341 336 333 334 332 331 331 327 320 315 317 323 325 328 330 332 334 336 340 346 350 352 355 359 9 17 11 358 347 340 336 338 343 351 357 0 357 346 344 346 341 331 332 337 341
266 258 252 246 243 259 304 335 339 332 307 268 254 262 276 281 288 294 295 297 300 300 301 310 319 324 323 322 331 340 333 325 324 323 324 325 323 319 317 320 323 327 330 331 334 339 342 346 355 3 5 5 8 16 11 355 345 342 344 344 344 350 357 358 2 6 360 349 348 343 327 326 331 335
274 267 255 252 295 301 312 317 314 309 300 291 291 296 297 296 301 307 306 302 299 297 298 304 311 315 317 319 326 332 330 326 324 321 320 320 321 321 322 325 329 333 334 333 338 346 348 349 358 11 12 2 355 356 351 341 335 334 339 342 340 342 348 353 358 5 8 4 358 350 330 320 324 330
250 252 256 271 290 296 301 307 307 300 289 284 289 298 302 305 310 314 313 309 304 301 300 301 303 307 313 318 322 325 325 322 319 320 320 322 327 328 328 329 332 335 335 334 341 350 348 344 347 350 351 349 343 337 333 332 331 330 331 333 333 331 329 338 352 1 9 14 10 3 346 321 317 323
239 252 267 277 286 291 294 300 302 296 286 282 282 284 287 292 302 308 309 308 305 301 298 298 300 304 310 316 320 321 320 318 318 320 322 324 328 327 327 330 333 336 336 334 340 348 344 339 342 339 332 332 333 330 328 328 327 328 328 328 328 325 320 318 335 358 9 14 16 12 2 340 319 316
248 257 266 273 280 282 283 288 291 288 284 283 282 280 280 284 294 304 307 306 304 300 299 300 302 305 310 316 319 318 318 317 316 318 319 320 322 321 322 326 332 337 337 334 338 346 343 337 342 342 336 333 330 326 326 326 325 325 326 325 323 322 320 314 316 340 5 11 13 12 9 359 337 316
247 252 258 262 268 272 273 276 280 283 282 281 280 277 273 274 280 291 299 302 300 300 303 305 306 306 310 316 317 317 316 313 312 314 315 316 319 320 321 324 330 337 337 333 337 345 343 337 342 343 337 334 331 327 327 327 327 323 320 320 320 319 321 318 312 317 340 359 3 4 5 3 354 332
247 248 252 255 258 262 266 269 272 277 280 280 282 281 274 272 274 281 288 293 293 297 303 308 309 308 311 316 317 316 314 312 311 312 313 315 317 319 321 323 327 334 335 331 334 342 344 340 342 343 337 331 330 328 328 329 328 323 320 322 323 321 324 322 311 309 316 328 340 347 349 352 352 344
253 256 255 254 254 256 259 264 269 275 280 283 285 285 282 280 279 280 283 284 286 292 300 305 306 307 310 314 315 314 312 311 311 310 312 314 315 317 319 319 324 330 332 329 329 336 342 339 339 341 339 335 333 330 330 332 329 325 326 330 329 324 324 322 312 306 309 311 312 316 323 329 335 339
258 262 258 253 255 258 261 263 266 269 273 278 280 282 282 281 281 283 283 282 285 292 297 299 301 305 308 310 311 311 309 309 310 311 312 313 313 314 315 318 323 328 329 326 324 330 338 338 338 343 344 342 342 341 341 341 336 333 335 334 329 327 327 327 323 317 314 312 307 302 301 304 313 326
259 263 262 263 264 265 263 262 264 265 267 271 275 279 281 282 283 286 287 285 286 289 291 294 297 301 304 306 307 307 307 308 309 310 311 312 312 313 316 319 324 327 327 324 323 330 341 341 340 347 350 349 351 353 354 353 349 349 347 339 331 330 332 339 342 337 331 326 320 312 304 298 297 307
256 262 265 270 273 273 269 264 263 265 268 271 274 277 281 284 286 288 289 287 286 287 288 291 295 299 301 302 303 304 305 306 306 307 309 311 312 314 317 320 321 324 327 327 327 335 345 344 341 346 350 352 358 8 11 8 6 5 357 344 335 332 335 343 346 341 335 331 328 326 320 310 302 300
255 260 264 269 276 279 275 269 266 267 270 274 277 279 282 284 284 285 286 286 286 286 288 291 294 297 298 299 300 301 302 303 304 306 308 310 312 313 315 317 318 325 332 331 331 338 344 343 339 339 343 349 354 5 15 16 15 17 10 355 347 344 344 344 344 341 335 331 331 332 331 327 319 311
252 257 262 269 275 278 276 272 271 272 274 277 280 281 283 282 281 280 281 283 284 285 287 289 292 293 295 296 298 298 300 302 304 306 308 309 311 312 315 317 320 327 335 333 332 333 337 340 336 332 336 344 347 353 7 13 11 13 17 10 3 0 356 352 351 348 342 338 338 337 335 334 330 325
251 256 263 270 275 276 275 275 275 275 277 279 280 281 281 280 279 279 279 281 283 284 285 287 289 289 291 292 292 294 297 301 302 304 306 309 311 314 317 318 320 325 332 335 331 327 328 337 337 330 331 335 340 346 356 3 359 353 356 1 358 355 353 353 352 348 343 342 343 340 336 332 329 328
252 257 263 268 271 272 273 274 276 277 279 280 281 281 281 280 279 279 279 279 280 281 282 283 283 281 279 278 282 288 294 298 300 303 307 310 312 313 315 317 321 324 327 332 330 323 323 331 334 332 332 330 328 331 338 347 348 342 339 344 345 342 343 345 340 331 331 340 348 346 339 332 328 327
252 256 259 262 265 266 268 271 275 279 282 283 283 282 280 280 277 274 274 276 278 280 281 282 281 278 274 275 278 283 288 292 298 305 310 311 309 308 309 311 314 317 323 329 326 320 322 325 326 332 334 323 316 321 329 338 344 340 335 335 336 332 329 325 316 314 323 343 356 354 346 337 332 331
243 247 251 254 256 258 262 267 273 281 285 284 282 279 275 270 265 263 265 267 270 274 275 276 278 281 282 282 281 282 285 288 292 299 304 304 301 300 303 305 307 310 318 323 319 316 320 324 324 328 323 308 309 319 328 337 346 347 340 336 331 324 319 311 304 307 319 340 350 349 346 338 330 328
237 238 240 241 242 246 254 261 269 280 282 276 273 270 262 255 253 253 254 255 258 261 263 263 263 273 286 288 285 283 283 285 289 292 293 291 287 287 292 299 305 308 310 311 309 308 312 314 311 309 303 302 311 320 326 336 347 347 343 341 327 314 311 309 308 311 317 327 339 344 344 336 326 320
227 227 224 217 212 226 245 252 260 267 264 259 256 250 243 241 244 245 244 246 247 251 256 259 263 277 289 293 291 287 286 286 287 288 288 287 283 280 280 285 291 296 297 294 292 293 296 297 296 298 300 305 313 320 325 334 339 334 336 346 328 307 307 309 312 316 318 321 331 339 340 334 324 316
216 224 230 208 195 243 256 256 256 251 243 235 229 228 230 232 234 235 237 241 248 257 264 271 278 287 294 296 296 297 296 294 291 288 288 288 287 285 285 284 283 281 277 275 274 276 280 283 286 292 298 305 313 318 322 325 326 325 328 333 323 312 313 313 314 315 316 320 328 335 336 335 331 326
252 279 309 331 326 299 278 260 240 218 203 203 212 219 225 228 232 239 247 256 266 275 282 287 292 296 301 304 308 312 311 306 300 292 288 286 285 286 285 281 274 267 262 261 264 269 275 279 283 288 296 304 311 312 309 309 317 324 325 327 325 320 317 316 316 315 315 320 327 332 334 336 336 334
267 278 285 294 291 277 264 249 227 207 198 202 210 217 223 227 234 245 256 265 274 283 290 294 298 304 308 311 315 317 316 311 304 297 292 289 288 287 284 272 256 249 252 259 267 272 275 279 284 290 295 301 305 302 298 302 311 317 320 325 328 321 316 317 318 316 315 319 324 329 330 331 332 330
262 269 274 274 259 247 245 237 224 215 213 213 212 217 223 226 231 239 249 258 269 279 287 291 298 304 306 307 310 313 313 310 305 301 300 299 296 295 291 283 265 248 247 256 269 276 278 280 285 291 297 304 307 301 298 304 308 308 310 319 325 323 318 315 313 312 313 316 320 323 324 326 328 329
270 266 259 236 216 217 226 231 229 224 219 216 214 216 219 219 224 234 241 250 262 273 283 290 296 299 301 304 309 310 308 304 302 303 304 303 300 298 296 294 289 276 263 257 261 269 277 282 287 295 304 313 314 308 304 304 303 304 304 306 309 311 310 309 309 310 312 314 316 320 325 330 333 334
289 240 213 198 194 198 206 216 222 216 208 205 205 209 215 221 231 241 249 259 270 278 287 294 299 302 305 308 310 307 302 298 299 303 305 304 302 300 299 300 302 303 303 301 293 291 294 297 298 301 306 312 311 309 308 305 301 304 309 311 311 310 309 311 315 317 319 319 318 320 325 330 333 334
260 189 191 192 194 201 210 216 216 215 215 214 216 223 234 247 259 267 275 282 288 292 295 299 302 305 306 307 307 302 295 293 295 298 301 301 301 302 304 308 311 313 317 319 318 315 313 309 305 303 304 306 308 308 307 308 309 313 316 318 319 319 317 317 319 321 325 326 325 322 322 324 329 333
204 186 191 196 197 205 221 227 226 230 240 249 255 259 266 275 281 286 291 295 298 302 306 308 308 307 303 300 295 291 289 292 294 297 299 301 304 308 312 315 315 317 322 326 326 323 318 314 311 310 309 310 310 310 311 313 316 320 321 320 319 319 319 320 323 325 326 326 325 324 321 320 323 329
182 184 190 193 197 213 239 246 247 252 260 269 278 284 287 290 293 296 300 302 304 307 310 312 311 307 301 294 290 290 295 301 305 308 311 315 318 319 318 317 317 321 326 329 328 325 321 318 318 317 316 314 312 311 314 318 320 324 323 321 319 318 318 318 320 322 324 324 324 324 323 321 320 323
173 180 188 193 202 235 261 263 265 270 273 278 284 288 292 296 299 302 303 304 306 307 308 309 308 304 299 297 298 300 305 310 313 316 318 320 321 319 317 318 320 323 326 328 326 322 319 319 321 321 321 318 314 312 312 314 320 327 326 321 319 320 319 318 317 317 319 322 322 323 323 321 318 317
170 178 187 194 205 232 255 264 270 273 276 280 282 285 290 293 296 298 300 302 306 309 310 310 308 304 300 299 299 301 303 305 308 310 312 314 316 317 318 319 320 321 321 322 320 318 316 318 320 321 322 322 320 316 311 309 314 325 328 324 321 320 319 319 319 317 315 316 317 318 320 319 317 315
180 191 201 207 222 244 258 267 274 277 279 283 284 286 289 291 293 295 298 301 306 310 310 308 305 303 302 301 300 301 301 303 305 307 310 313 315 316 316 316 316 316 316 316 315 314 314 315 316 317 320 322 320 316 311 309 312 318 320 318 318 320 320 320 321 320 319 319 317 316 316 315 315 315
198 215 227 235 248 262 268 274 279 281 283 286 288 290 292 294 296 297 298 298 301 303 304 305 304 302 301 300 300 300 302 304 306 308 310 311 312 312 312 312 313 313 313 313 313 313 313 314 314 316 317 317 313 308 305 304 304 305 305 307 312 319 323 325 326 325 325 325 323 321 319 318 316 316
227 248 259 260 264 270 274 278 281 283 285 287 289 291 294 295 297 298 297 296 296 297 298 301 301 301 300 300 299 300 302 304 306 307 308 309 309 310 310 311 312 312 311 311 313 313 313 313 314 314 313 312 309 306 305 303 303 304 306 310 314 319 322 325 328 328 327 329 330 327 324 322 320 319
256 266 274 274 274 275 276 277 279 281 282 285 287 289 291 293 294 295 294 293 293 294 296 298 299 298 298 297 297 299 300 302 303 305 306 308 309 309 310 310 310 311 311 312 312 311 310 311 312 312 311 311 312 312 313 313 313 314 315 316 318 320 323 325 325 326 326 329 330 328 326 325 324 324
273 274 276 277 278 279 278 279 280 281 282 284 285 286 288 289 289 288 287 287 288 290 293 294 295 294 294 294 296 297 299 300 302 303 305 307 309 309 310 310 310 310 310 309 307 306 308 310 312 312 313 316 318 320 320 320 320 320 321 321 323 325 327 327 327 326 324 323 324 325 326 328 327 325
274 274 274 274 275 277 278 279 280 281 282 283 284 285 286 286 285 285 285 285 287 289 290 291 291 292 292 292 293 295 296 298 301 303 305 306 306 306 307 307 307 307 306 306 305 305 308 312 314 316 319 321 324 325 326 326 327 327 328 329 331 333 335 335 335 331 328 327 328 328 329 330 327 322
273 273 274 274 275 276 278 280 280 281 281 282 282 283 284 285 286 286 287 287 288 288 289 289 289 289 290 291 292 293 295 297 300 301 302 301 300 300 302 304 304 304 304 305 306 308 313 317 320 322 325 329 331 333 332 332 332 333 333 335 338 341 341 340 337 334 333 334 337 336 334 333 330 326